This is the latest recevied weather packets stored in our database for station/object HB9CEY-10. If no packets are shown the sender has not sent any weather packets the latest 10 day(s).
| Time | Temp. | Humidity | Pressure | Rain* | Wind** | Luminosity | Snow |
|---|---|---|---|---|---|---|---|
| 1777669130 | 13.33° C | 39% | 1024.3 hPa | - | - | - | - |
| 1777668230 | 13.33° C | 39% | 1024.2 hPa | - | - | - | - |
| 1777667330 | 13.89° C | 38% | 1024.1 hPa | - | - | - | - |
| 1777666430 | 13.89° C | 38% | 1024.1 hPa | - | - | - | - |
| 1777665530 | 13.89° C | 38% | 1024 hPa | - | - | - | - |
| 1777664630 | 14.44° C | 38% | 1024 hPa | - | - | - | - |
| 1777663730 | 15° C | 37% | 1023.8 hPa | - | - | - | - |
| 1777662830 | 15° C | 37% | 1023.7 hPa | - | - | - | - |
| 1777661930 | 15.56° C | 37% | 1023.6 hPa | - | - | - | - |
| 1777661029 | 15.56° C | 36% | 1023.5 hPa | - | - | - | - |
| 1777660130 | 16.11° C | 36% | 1023.4 hPa | - | - | - | - |
| 1777659229 | 16.67° C | 35% | 1023.2 hPa | - | - | - | - |
| 1777658329 | 17.22° C | 35% | 1023.3 hPa | - | - | - | - |
| 1777657429 | 17.78° C | 35% | 1023.2 hPa | - | - | - | - |
| 1777656529 | 17.78° C | 34% | 1023 hPa | - | - | - | - |
| 1777655629 | 18.33° C | 34% | 1023.1 hPa | - | - | - | - |
| 1777654729 | 18.33° C | 33% | 1022.9 hPa | - | - | - | - |
| 1777653829 | 18.89° C | 33% | 1023.1 hPa | - | - | - | - |
| 1777652929 | 18.89° C | 32% | 1023.1 hPa | - | - | - | - |
| 1777652029 | 18.89° C | 32% | 1023.1 hPa | - | - | - | - |
| 1777651129 | 18.89° C | 33% | 1023.2 hPa | - | - | - | - |
| 1777650229 | 18.89° C | 33% | 1023.2 hPa | - | - | - | - |
| 1777649329 | 18.89° C | 32% | 1023.3 hPa | - | - | - | - |
| 1777648429 | 19.44° C | 32% | 1023.4 hPa | - | - | - | - |
| 1777647529 | 19.44° C | 32% | 1023.5 hPa | - | - | - | - |
* Rain since midnight (hover to see other rain measurements)
** Current wind speed in m/s (hover to see current wind gust speed)